Location: Roanoke
(37.2710°N, 79.9420°W)
Time: 00:18:33
(UTC-05:00)

Courier 1B Rocket - Pass Details

Date: 20 November 2019
Orbit: 920 x 1202 km, 28.2° (Epoch: 14 December)

Event Time Altitude Azimuth Distance (km) Brightness Sun altitude
Rises 17:29:14 0° 260° (W) 3,882 10.3 -5.0°
Reaches altitude 10° 17:32:05 10° 253° (WSW) 2,966 9.4 -5.5°
Maximum altitude 17:38:50 40° 187° (S) 1,640 6.5 -6.8°
Drops below altitude 10° 17:45:55 10° 121° (ESE) 3,108 7.3 -8.1°
Sets 17:48:59 0° 114° (ESE) 4,085 7.8 -8.7°
